Regional Weather Roundup
Issued by NWS Albany, NY

Home | Current Version | Previous Version | Text Only | Print | Product List | Glossary On
Versions: 1 2 3 4 5 6 7 8 9 10 11 12 13 14 15 16 17 18 19 20 21 22 23 24 25 26 27 28
000
ASUS41 KALY 172110
RWRALY

NEW YORK STATE HOURLY WEATHER ROUNDUP
NATIONAL WEATHER SERVICE ALBANY NY
400 PM EST TUE JAN 17 2017

NOTE: "FAIR" INDICATES FEW OR NO CLOUDS BELOW 12,000 FEET WITH NO
SIGNIFICANT WEATHER AND/OR NO OBSTRUCTIONS TO VISIBILITY.

NYZ032-033-038>043-046>054-057>066-NYZ062>081-082-084-172200-
EAST


CITY           SKY/WX    TMP DP  RH WIND       PRES   REMARKS
ALBANY         FRZ RAIN  32  28  85 NE3       30.12S FOG
GLENS FALLS    LGT RAIN  36  21  54 NW3       30.11S
POUGHKEEPSIE   CLOUDY    35  34  96 NE3       30.10F FOG
NEWBURGH       LGT RAIN  36  34  93 E9        30.10F FOG     WCI  29
MONTGOMERY     LGT RAIN  35  33  92 N6        30.08F FOG     WCI  30
WHITE PLAINS   LGT RAIN  36  33  89 E9        30.08F FOG     WCI  29
ISLIP          LGT RAIN  38  36  92 E6        30.11F FOG     WCI  33
NEW YORK CITY  CLOUDY    41  36  82 E7        30.10S HAZE
CENTRAL PARK   CLOUDY    40  37  89 E7        30.11S FOG
$$

NYZ005>009-017-018-044>046-055-056-172200-
CENTRAL


CITY           SKY/WX    TMP DP  RH WIND       PRES   REMARKS
FULTON         LGT RAIN  35  33  92 E9        29.91F FOG     WCI  28
SYRACUSE       RAIN      33  33 100 E14       29.92F FOG     WCI  23
ROME           RAIN      33  31  92 E9        30.01S FOG     WCI  25
ELMIRA         LGT RAIN  39  35  86 VRB3      29.90F FOG
BINGHAMTON     RAIN      33  32  96 SE14      29.91S FOG     WCI  23
MONTICELLO     CLOUDY    30  28  93 E10       30.02F WCI  21
$$

NYZ026>034-041>043-087-172200-
NORTH


CITY           SKY/WX    TMP DP  RH WIND       PRES   REMARKS
WATERTOWN      MIX PCPN  33  30  88 NE15      29.93F WCI  23
FORT DRUM      NOT AVBL
OGDENSBURG     FAIR      35  28  76 E7        30.01F WCI  29
MASSENA        MOCLDY    32  25  75 NE18G26   30.06F WCI  20
SARANAC LAKE   CLOUDY    32  20  61 E6        29.97F WCI  26
PLATTSBURGH    CLOUDY    34  23  64 CALM      30.11F
$$

NYZ001>004-010>016-019>021-085-172200-
WEST


CITY           SKY/WX    TMP DP  RH WIND       PRES   REMARKS
NIAGARA FALLS  LGT RAIN  40  37  89 E6        29.76S VSB 1
BUFFALO        LGT RAIN  41  40  96 VRB6      29.76R FOG
DUNKIRK        CLOUDY    47  46  97 SW7       29.78R
JAMESTOWN      CLOUDY    48  46  93 SW8       29.78R
WELLSVILLE     LGT RAIN  41  39  93 SE6       29.83S FOG
ROCHESTER      LGT RAIN  40  38  93 SE10      29.81F FOG     WCI  33
PENN YAN       CLOUDY    39  35  86 SE5       29.86F
$$

             KEY
       WCI = WIND CHILL INDEX
       VSB = VISIBILITY
       HX  = HEAT INDEX
$$




USA.gov is the U.S. government's official web portal to all federal, state and local government web resources and services.